Location: Lugrin
(46.4033°N, 6.6674°E)
Time: 01:08:02
(UTC+00:00)

SJ-6B - Pass Details

Date: 18 September 2020
Orbit: 511 x 580 km, 97.6° (Epoch: 31 October)

Event Time Altitude Azimuth Distance (km) Brightness Sun altitude
Exits shadow 19:22:23 28° 170° (S) 978 3.8 -18.3°
Maximum altitude 19:24:15 85° 257° (WSW) 521 2.6 -18.6°
Drops below altitude 10° 19:28:01 10° 346° (NNW) 1,753 5.9 -19.2°
Sets 19:30:08 0° 347° (NNW) 2,651 6.8 -19.5°
